Disclaimer

Please do not use the information listed here in-flight or in-navigation, as they are not provided to us by the airports but are provided by volunteers, so they might be outdated.

Search


Regions


Airport information page

Radio informations:
Tower (TWR) - 118.3 MHz
Ground (GND) - 121.9 MHz
DEP - 120.1 MHz
Automatic Terminal Information Service (ATIS) - 126.8 MHz
Approach (APP) - 121.4 MHz

Airport informations:
Latitude: 31° 52' 38.00" N
Longitude: 131° 26' 55.00" E
Elevation: 20 feet - 6 meters
Operating hours: Remarks
Operating agency: Civil government, landing fees and diplomatic clearance may be required
Timezone: UTC+9
Fuel: Jet A, without icing inhibitor.

100/130 octane gasoline, leaded, MIL-L-5572F (GREEN)

Runway information:
09/27 - 8200 x 150 feet< - >2499 x 46 meters

Recent METARs:
RJFM 192300Z 27011KT 9999 FEW020 SCT035 16/12 Q1014
RJFM 200000Z 26011KT 9999 FEW020 SCT045 BKN/// 16/12 Q1014
RJFM 200000Z 26011KT 9999 FEW020 SCT045 BKN/// 16/12 Q1014

Airport on the map: